When you browse on this site, cookies collect data to enhance your experience and personalize the content and advertising you see.
Visit our Privacy Policy to learn more. By continuing to use the site, you agree to this use of cookies and data.
  • In Hungary
  • List of Countries
  • For 7 days
  • Water Temperature
  • Weather Map
  • News
  • Weather Widgets
  • user-avatar
    Login

    Hourly Weather Volshnica

    Today, 23 September, Monday

    Time Temperature Precipitation Wind Pressure Humidity
    00:00 0°C° 0 mm 4 mps 740 mmHg 90%
    01:00 0°C° 0 mm 5 mps 740 mmHg 90%
    02:00 0°C° 0 mm 5 mps 740 mmHg 89%
    03:00 0°C° 0 mm 5 mps 740 mmHg 88%
    04:00 0°C° 0 mm 5 mps 741 mmHg 88%
    05:00 0°C° 0 mm 5 mps 741 mmHg 88%
    06:00 0°C° 0 mm 5 mps 741 mmHg 85%
    07:00 0°C° 0 mm 5 mps 742 mmHg 82%
    08:00 +1°C° 0 mm 6 mps 742 mmHg 80%
    09:00 +1°C° 0 mm 6 mps 742 mmHg 75%
    10:00 +2°C° 0 mm 6 mps 742 mmHg 71%
    11:00 +3°C° 0 mm 6 mps 742 mmHg 66%
    12:00 +3°C° 0 mm 6 mps 743 mmHg 65%
    13:00 +4°C° 0 mm 6 mps 743 mmHg 64%
    14:00 +4°C° 0 mm 6 mps 743 mmHg 62%
    15:00 +5°C° 0.1 mm 5 mps 743 mmHg 68%
    16:00 +3°C° 0.1 mm 5 mps 743 mmHg 73%
    17:00 +3°C° 0.1 mm 4 mps 743 mmHg 78%
    18:00 +1°C° 0 mm 4 mps 743 mmHg 82%
    19:00 +1°C° 0 mm 4 mps 743 mmHg 85%
    20:00 +1°C° 0 mm 3 mps 744 mmHg 89%
    21:00 +1°C° 0 mm 3 mps 744 mmHg 91%
    22:00 0°C° 0 mm 3 mps 744 mmHg 93%
    23:00 0°C° 0 mm 3 mps 743 mmHg 96%

    Tomorrow, 24 September, Tuesday

    Time Temperature Precipitation Wind Pressure Humidity
    00:00 0°C° 0 mm 3 mps 744 mmHg 94%
    01:00 +1°C° 0 mm 3 mps 744 mmHg 92%
    02:00 +1°C° 0 mm 3 mps 744 mmHg 90%
    03:00 +1°C° 0 mm 3 mps 744 mmHg 91%
    04:00 0°C° 0 mm 3 mps 744 mmHg 93%
    05:00 +1°C° 0 mm 2 mps 744 mmHg 95%
    06:00 0°C° 0.1 mm 3 mps 744 mmHg 92%
    07:00 +1°C° 0.1 mm 3 mps 744 mmHg 90%
    08:00 +1°C° 0.1 mm 3 mps 744 mmHg 88%
    09:00 +2°C° 0.1 mm 3 mps 744 mmHg 84%
    10:00 +2°C° 0.1 mm 3 mps 744 mmHg 80%
    11:00 +3°C° 0.1 mm 3 mps 744 mmHg 76%
    12:00 +3°C° 0 mm 3 mps 744 mmHg 73%
    13:00 +4°C° 0 mm 3 mps 744 mmHg 70%
    14:00 +4°C° 0 mm 3 mps 744 mmHg 67%
    15:00 +5°C° 0.1 mm 2 mps 744 mmHg 71%
    16:00 +4°C° 0.1 mm 2 mps 744 mmHg 76%
    17:00 +5°C° 0.1 mm 1 mps 744 mmHg 81%
    18:00 +4°C° 0 mm 1 mps 744 mmHg 84%
    19:00 +3°C° 0 mm 1 mps 744 mmHg 88%
    20:00 +2°C° 0 mm 1 mps 745 mmHg 92%
    21:00 +1°C° 0 mm 1 mps 745 mmHg 93%
    22:00 +1°C° 0 mm 1 mps 745 mmHg 94%
    23:00 0°C° 0 mm 1 mps 745 mmHg 95%

    Day after tomorrow, 25 September, Wednesday

    Time Temperature Precipitation Wind Pressure Humidity
    00:00 0°C° 0 mm 1 mps 745 mmHg 95%
    01:00 -2°C° 0 mm 2 mps 745 mmHg 96%
    02:00 -2°C° 0 mm 2 mps 745 mmHg 96%
    03:00 -2°C° 0 mm 2 mps 745 mmHg 96%
    04:00 -2°C° 0 mm 2 mps 745 mmHg 96%
    05:00 -2°C° 0 mm 2 mps 745 mmHg 96%
    06:00 +1°C° 0 mm 1 mps 745 mmHg 91%
    07:00 +2°C° 0 mm 1 mps 745 mmHg 87%
    08:00 +3°C° 0 mm 1 mps 745 mmHg 82%
    09:00 +5°C° 0 mm 1 mps 745 mmHg 75%
    10:00 +5°C° 0 mm 2 mps 746 mmHg 69%
    11:00 +6°C° 0 mm 2 mps 746 mmHg 62%
    12:00 +6°C° 0 mm 2 mps 746 mmHg 61%
    13:00 +6°C° 0 mm 2 mps 746 mmHg 59%
    14:00 +7°C° 0 mm 2 mps 745 mmHg 57%
    15:00 +6°C° 0 mm 2 mps 745 mmHg 63%
    16:00 +5°C° 0 mm 1 mps 745 mmHg 69%
    17:00 +4°C° 0 mm 1 mps 745 mmHg 75%
    18:00 +3°C° 0 mm 1 mps 745 mmHg 78%
    19:00 +2°C° 0 mm 1 mps 746 mmHg 81%
    20:00 +1°C° 0 mm 1 mps 746 mmHg 84%
    21:00 +1°C° 0 mm 1 mps 746 mmHg 86%
    22:00 +1°C° 0 mm 1 mps 746 mmHg 87%
    23:00 0°C° 0 mm 1 mps 746 mmHg 89%

    26 September, Thursday

    Time Temperature Precipitation Wind Pressure Humidity
    00:00 0°C° 0 mm 1 mps 746 mmHg 89%
    01:00 0°C° 0 mm 1 mps 746 mmHg 90%
    02:00 0°C° 0 mm 1 mps 746 mmHg 91%
    03:00 0°C° 0 mm 1 mps 746 mmHg 91%
    04:00 0°C° 0 mm 1 mps 746 mmHg 92%
    05:00 0°C° 0 mm 1 mps 746 mmHg 92%
    06:00 +2°C° 0 mm 1 mps 746 mmHg 86%
    07:00 +3°C° 0 mm 1 mps 746 mmHg 80%
    08:00 +5°C° 0 mm 1 mps 747 mmHg 74%
    09:00 +6°C° 0 mm 1 mps 747 mmHg 69%
    10:00 +7°C° 0 mm 2 mps 747 mmHg 63%
    11:00 +8°C° 0 mm 2 mps 747 mmHg 58%
    12:00 +8°C° 0 mm 2 mps 746 mmHg 59%
    13:00 +9°C° 0 mm 2 mps 746 mmHg 59%
    14:00 +9°C° 0 mm 2 mps 746 mmHg 59%
    15:00 +8°C° 0 mm 2 mps 746 mmHg 64%
    16:00 +8°C° 0 mm 1 mps 745 mmHg 69%
    17:00 +7°C° 0 mm 1 mps 745 mmHg 73%
    18:00 +6°C° 0 mm 1 mps 745 mmHg 77%
    19:00 +5°C° 0 mm 1 mps 745 mmHg 80%
    20:00 +4°C° 0 mm 1 mps 745 mmHg 84%
    21:00 +3°C° 0 mm 2 mps 745 mmHg 86%
    22:00 +2°C° 0 mm 2 mps 745 mmHg 88%
    23:00 +2°C° 0 mm 2 mps 745 mmHg 90%

    27 September, Friday

    Time Temperature Precipitation Wind Pressure Humidity
    00:00 +2°C° 0 mm 2 mps 745 mmHg 91%
    01:00 +2°C° 0 mm 2 mps 745 mmHg 91%
    02:00 +3°C° 0 mm 1 mps 745 mmHg 92%
    03:00 +3°C° 0 mm 1 mps 745 mmHg 92%
    04:00 +2°C° 0 mm 1 mps 745 mmHg 93%
    05:00 +2°C° 0 mm 1 mps 745 mmHg 94%
    06:00 +3°C° 0 mm 1 mps 745 mmHg 89%
    07:00 +5°C° 0 mm 1 mps 745 mmHg 84%
    08:00 +6°C° 0 mm 1 mps 745 mmHg 79%
    09:00 +6°C° 0 mm 2 mps 745 mmHg 73%
    10:00 +8°C° 0 mm 2 mps 746 mmHg 67%
    11:00 +9°C° 0 mm 2 mps 746 mmHg 61%
    12:00 +10°C° 0 mm 2 mps 746 mmHg 60%
    13:00 +10°C° 0 mm 2 mps 746 mmHg 58%
    14:00 +10°C° 0 mm 2 mps 746 mmHg 57%
    15:00 +10°C° 0 mm 1 mps 746 mmHg 63%
    16:00 +9°C° 0 mm 1 mps 746 mmHg 70%
    17:00 +8°C° 0 mm 1 mps 746 mmHg 76%
    18:00 +6°C° 0 mm 0 mps 746 mmHg 79%
    19:00 +5°C° 0 mm 0 mps 746 mmHg 83%
    20:00 +5°C° 0 mm 0 mps 746 mmHg 87%
    21:00 +5°C° 0 mm 0 mps 747 mmHg 87%
    22:00 +5°C° 0 mm 0 mps 747 mmHg 87%
    23:00 +4°C° 0 mm 0 mps 747 mmHg 87%

    28 September, Saturday

    Time Temperature Precipitation Wind Pressure Humidity
    00:00 +4°C° 0 mm 0 mps 747 mmHg 87%
    01:00 +5°C° 0 mm 1 mps 747 mmHg 87%
    02:00 +5°C° 0 mm 1 mps 747 mmHg 87%
    03:00 +5°C° 0 mm 1 mps 747 mmHg 87%
    04:00 +5°C° 0 mm 1 mps 747 mmHg 87%
    05:00 +5°C° 0 mm 1 mps 747 mmHg 87%
    06:00 +6°C° 0 mm 1 mps 747 mmHg 83%
    07:00 +7°C° 0 mm 1 mps 747 mmHg 78%
    08:00 +8°C° 0 mm 1 mps 747 mmHg 74%
    09:00 +9°C° 0 mm 1 mps 747 mmHg 69%
    10:00 +9°C° 0 mm 2 mps 747 mmHg 63%
    11:00 +12°C° 0 mm 2 mps 747 mmHg 58%
    12:00 +11°C° 0 mm 3 mps 747 mmHg 57%
    13:00 +12°C° 0 mm 3 mps 747 mmHg 57%
    14:00 +12°C° 0 mm 3 mps 746 mmHg 56%
    15:00 +11°C° 0 mm 3 mps 746 mmHg 63%
    16:00 +10°C° 0 mm 2 mps 745 mmHg 70%
    17:00 +9°C° 0 mm 2 mps 745 mmHg 77%
    18:00 +8°C° 0 mm 3 mps 745 mmHg 80%
    19:00 +8°C° 0 mm 3 mps 744 mmHg 83%
    20:00 +7°C° 0 mm 3 mps 744 mmHg 85%
    21:00 +7°C° 0 mm 3 mps 744 mmHg 86%
    22:00 +7°C° 0 mm 3 mps 743 mmHg 87%
    23:00 +6°C° 0 mm 4 mps 743 mmHg 89%
    Show more